Wind_Speed
37 38 39 39 40 41 42 43 43 43 43 44 46 47 49 50 52 54 56 57 59 61 61 62 62 63 63 63 64 64 65 64 64 64 64 64 65 65
38 38 39 40 41 42 43 43 44 45 45 45 47 49 51 52 54 56 58 59 62 63 63 63 63 63 64 64 64 64 64 64 64 64 64 65 64 63
38 39 40 41 41 42 43 44 45 46 46 47 49 51 52 54 56 58 60 62 63 63 63 63 63 63 64 64 64 63 63 63 63 63 63 62 61 60
39 39 40 41 42 43 43 44 45 46 47 48 50 52 54 56 58 60 61 62 62 63 63 63 63 63 63 63 63 62 62 61 62 61 60 59 58 57
39 39 40 41 42 43 44 45 46 47 48 50 51 53 56 58 59 60 61 61 62 62 62 62 62 62 62 63 62 61 61 61 60 58 56 55 54 53
38 39 40 41 42 43 44 45 46 47 50 51 53 55 57 58 59 60 60 61 60 60 61 61 62 62 62 61 60 59 59 58 56 54 52 52 51 49
38 40 41 41 42 43 44 45 46 49 51 53 55 56 58 58 59 59 60 59 59 60 60 61 61 60 60 59 59 58 56 55 53 51 49 48 45 43
39 40 41 41 42 43 44 45 48 50 52 54 55 57 58 58 59 59 59 59 59 60 60 60 60 59 59 58 57 56 54 52 50 48 46 43 40 37
39 39 40 41 42 43 45 46 48 51 53 55 56 57 57 58 59 58 58 59 60 60 60 59 59 58 57 57 55 53 51 49 46 43 40 38 36 34
38 38 40 41 42 44 45 47 49 51 53 54 56 57 58 58 58 58 58 59 61 62 61 59 57 56 55 55 53 51 48 44 42 39 37 36 34 32
37 38 39 41 42 43 46 48 50 52 53 54 55 57 58 58 58 58 59 60 60 61 60 58 56 55 54 53 50 47 44 41 40 37 36 34 32 30
37 38 39 41 42 44 46 48 50 51 52 54 55 57 57 57 58 59 60 61 61 59 58 57 55 53 51 49 46 43 41 39 37 36 34 32 30 29
37 38 39 41 43 45 47 48 50 51 52 54 55 56 56 56 58 59 61 61 60 58 57 54 52 51 49 45 42 40 38 37 36 35 33 31 29 26
36 38 39 41 43 45 47 48 50 51 53 54 55 55 55 56 57 59 60 60 58 56 54 51 49 48 45 41 39 38 37 36 34 33 31 29 27 24
36 37 39 41 43 45 47 48 50 51 53 54 54 54 55 56 57 58 59 57 55 53 50 48 46 44 42 39 37 36 34 33 32 31 29 26 24 22
36 37 39 41 43 45 47 48 50 51 52 52 53 53 54 55 57 57 56 54 52 49 46 44 42 41 39 38 36 34 32 31 30 28 25 23 21 21
35 37 39 41 43 44 46 48 50 51 51 52 52 52 54 54 55 55 53 50 48 45 43 41 40 39 37 36 35 33 31 30 27 24 22 21 21 20
35 37 39 40 43 45 47 49 50 50 50 50 51 52 52 53 53 52 50 47 45 42 40 39 38 37 36 35 33 31 30 28 24 22 21 21 21 20
35 37 39 41 43 45 47 49 49 49 49 49 50 51 51 51 51 50 47 45 42 40 38 37 36 34 33 32 31 29 27 25 23 21 21 20 20 19
35 37 39 41 43 45 47 48 48 48 48 49 50 50 50 49 49 48 46 43 39 37 35 34 34 32 31 29 28 27 25 23 21 21 21 21 20 19
36 38 40 42 44 45 47 48 47 47 48 48 49 49 49 48 47 46 43 40 36 35 33 33 32 30 29 28 27 26 24 22 21 20 20 20 19 17
36 38 40 42 44 46 47 47 46 46 47 48 48 48 48 47 46 44 40 37 34 33 32 31 30 29 27 26 25 24 23 22 21 19 19 18 17 15
36 38 40 42 44 46 47 46 45 46 47 47 47 47 46 46 44 41 37 35 33 32 30 29 28 27 26 25 23 22 21 21 20 19 19 18 17 15
Wind_Direction
294 296 298 299 301 302 304 305 306 307 308 308 309 310 311 311 311 311 312 311 311 311 310 309 308 307 307 306 304 303 301 300 298 296 295 294 292 291
293 295 297 299 300 302 303 304 305 306 308 308 309 310 310 311 311 312 312 312 312 311 310 310 310 309 308 307 305 304 302 301 299 298 296 295 294 292
293 294 296 298 300 301 303 304 305 307 308 308 309 310 310 311 312 312 312 312 312 312 312 311 311 311 310 309 307 306 304 303 302 300 298 297 295 293
292 294 296 298 299 300 302 304 305 307 308 309 310 310 311 312 312 313 313 313 313 313 313 312 312 312 311 310 310 309 307 306 304 303 301 299 297 295
292 294 296 298 299 300 302 303 305 307 308 310 310 311 312 313 313 313 314 314 314 314 314 314 314 314 313 312 312 311 310 309 307 305 303 301 300 298
293 294 296 297 298 300 302 303 305 307 309 310 311 312 313 313 313 314 315 314 315 315 315 315 315 315 315 314 314 313 312 311 310 309 307 305 303 301
292 294 295 297 299 301 302 304 305 307 309 310 312 312 313 313 314 315 315 315 316 316 316 316 316 316 315 315 315 314 314 313 312 311 310 309 307 305
292 294 295 297 300 301 303 304 306 308 309 310 311 312 313 314 314 315 315 316 316 317 317 317 316 316 316 316 316 316 315 315 314 314 313 312 310 308
292 293 296 298 300 301 303 305 307 309 310 311 312 313 314 315 315 315 316 317 318 318 318 318 317 317 318 318 318 317 317 317 317 317 317 315 313 310
292 294 296 298 299 301 304 306 308 309 311 311 312 314 315 315 315 316 317 318 319 319 319 318 318 318 318 319 319 319 319 319 320 319 319 318 316 314
293 295 297 298 300 303 305 308 309 310 311 312 313 315 316 316 316 317 318 319 319 319 319 318 318 318 319 320 320 320 320 321 321 320 320 319 317 316
293 295 297 299 301 304 307 309 310 311 312 313 315 316 316 316 317 318 319 319 319 319 319 319 319 319 320 320 320 320 321 322 322 322 321 320 319 318
293 295 297 300 303 306 308 309 310 312 313 315 316 317 317 317 318 319 320 320 320 320 320 319 320 320 321 322 321 321 323 323 323 323 322 321 321 320
294 297 299 302 305 307 308 310 312 313 315 316 317 317 317 318 319 320 321 321 321 320 320 320 321 323 324 324 324 323 324 324 324 324 324 324 323 322
296 299 301 304 306 307 310 312 313 315 316 317 318 318 318 319 320 321 322 322 322 322 322 322 323 324 325 326 326 326 326 325 325 326 325 325 325 325
297 300 302 305 307 309 311 314 315 316 317 318 318 319 320 321 321 322 323 323 323 323 323 324 325 326 326 327 328 328 328 328 328 328 328 329 330 328
298 301 304 307 309 311 313 315 316 317 318 319 320 320 321 322 323 324 324 324 324 324 324 325 326 327 328 328 329 330 331 331 331 331 332 333 333 330
300 303 306 308 310 312 314 316 317 318 319 320 320 321 322 323 324 325 325 325 325 324 325 325 326 328 329 330 331 332 333 334 335 335 336 336 335 334
301 304 307 309 311 313 315 317 318 318 319 320 321 322 324 325 326 327 327 326 325 325 326 327 328 328 330 331 332 334 335 336 337 337 337 338 337 336
302 305 308 310 312 314 316 318 319 319 320 321 322 323 325 326 327 328 327 327 326 326 327 329 330 331 331 332 333 335 337 338 338 338 339 340 340 340
303 306 309 311 313 315 317 319 319 320 321 322 323 324 325 326 327 328 328 327 327 328 329 330 332 333 334 335 336 337 339 340 341 341 342 342 342 343
304 307 310 312 314 316 318 319 320 321 322 323 324 325 326 327 328 328 327 327 327 328 330 331 332 335 336 337 338 339 340 342 343 344 345 346 346 348
304 307 311 313 315 317 319 319 320 321 322 323 324 325 326 327 327 327 327 327 327 328 329 330 332 334 336 337 338 339 341 343 344 345 347 348 349 351
Height
5743 5740 5737 5734 5730 5726 5722 5718 5715 5711 5707 5701 5695 5688 5682 5676 5669 5662 5655 5647 5639 5630 5622 5614 5606 5598 5589 5581 5574 5566 5558 5551 5544 5538 5531 5525 5520 5515
5735 5732 5729 5726 5722 5718 5714 5710 5705 5701 5697 5692 5685 5679 5672 5666 5658 5651 5643 5634 5626 5616 5608 5599 5590 5582 5573 5565 5556 5548 5540 5532 5525 5518 5511 5505 5499 5494
5727 5724 5721 5717 5714 5710 5705 5701 5697 5692 5688 5682 5676 5669 5662 5655 5647 5639 5631 5622 5612 5603 5594 5584 5575 5566 5557 5548 5539 5530 5522 5514 5506 5499 5491 5485 5479 5474
5719 5716 5713 5709 5705 5701 5697 5692 5688 5683 5678 5673 5666 5659 5652 5644 5636 5627 5618 5609 5599 5590 5580 5571 5561 5552 5542 5532 5523 5514 5505 5496 5488 5480 5473 5466 5460 5454
5710 5707 5704 5701 5697 5693 5688 5684 5679 5674 5668 5662 5656 5649 5641 5632 5624 5616 5606 5596 5586 5577 5567 5557 5548 5537 5527 5517 5507 5498 5489 5480 5471 5463 5455 5448 5442 5437
5702 5699 5695 5692 5688 5684 5679 5675 5670 5664 5658 5652 5645 5638 5630 5621 5612 5604 5595 5584 5575 5565 5555 5545 5535 5524 5514 5503 5493 5484 5474 5464 5455 5447 5440 5433 5427 5422
5693 5690 5687 5683 5679 5675 5670 5665 5660 5654 5648 5641 5634 5626 5618 5609 5601 5591 5583 5573 5564 5553 5544 5533 5523 5513 5502 5491 5480 5470 5460 5451 5442 5434 5427 5420 5414 5409
5684 5681 5678 5674 5670 5666 5661 5656 5650 5645 5638 5631 5623 5614 5606 5597 5589 5579 5570 5562 5554 5545 5533 5522 5511 5501 5490 5479 5468 5458 5448 5439 5431 5423 5416 5409 5403 5398
5676 5672 5669 5665 5661 5657 5652 5646 5641 5634 5627 5620 5611 5603 5594 5587 5578 5568 5558 5548 5539 5530 5521 5511 5499 5489 5478 5467 5456 5447 5438 5429 5421 5414 5407 5400 5395 5390
5667 5664 5660 5656 5652 5648 5643 5637 5631 5624 5617 5609 5601 5592 5582 5573 5565 5556 5547 5538 5527 5516 5506 5498 5488 5478 5467 5456 5446 5437 5428 5420 5413 5406 5399 5393 5388 5383
5658 5655 5651 5647 5643 5639 5634 5628 5621 5613 5605 5597 5589 5580 5571 5562 5553 5544 5535 5526 5517 5506 5495 5486 5477 5467 5457 5447 5436 5427 5419 5412 5405 5398 5392 5387 5381 5376
5649 5646 5642 5638 5634 5629 5623 5618 5611 5603 5595 5587 5578 5569 5560 5551 5541 5533 5523 5514 5504 5495 5484 5474 5465 5455 5448 5438 5428 5419 5412 5405 5398 5392 5386 5380 5375 5371
5640 5637 5633 5629 5624 5619 5614 5607 5600 5593 5585 5577 5568 5559 5550 5540 5531 5521 5511 5501 5491 5481 5472 5463 5454 5444 5435 5428 5420 5412 5405 5398 5391 5385 5379 5374 5369 5365
5632 5628 5624 5620 5615 5610 5604 5597 5590 5582 5574 5566 5558 5549 5540 5530 5521 5511 5500 5490 5480 5470 5460 5452 5444 5435 5426 5419 5412 5406 5398 5391 5385 5379 5374 5368 5364 5359
5623 5619 5615 5611 5606 5600 5594 5587 5580 5572 5564 5556 5547 5538 5529 5520 5510 5500 5490 5480 5470 5460 5451 5443 5435 5427 5419 5412 5406 5399 5393 5386 5379 5374 5369 5364 5360 5356
5614 5610 5606 5602 5597 5591 5584 5577 5570 5562 5554 5546 5537 5528 5519 5510 5500 5490 5480 5470 5461 5452 5443 5435 5428 5420 5413 5406 5399 5393 5387 5381 5375 5369 5364 5360 5356 5352
5605 5602 5598 5593 5588 5582 5575 5568 5560 5552 5544 5535 5527 5518 5509 5500 5490 5480 5471 5461 5453 5444 5437 5429 5421 5414 5408 5401 5395 5388 5382 5376 5370 5365 5361 5357 5353 5350
5597 5593 5588 5584 5578 5572 5566 5558 5550 5542 5534 5526 5517 5509 5500 5490 5481 5471 5462 5453 5445 5437 5430 5423 5416 5409 5402 5395 5390 5384 5378 5372 5367 5363 5359 5355 5351 5347
5588 5584 5579 5574 5569 5563 5556 5549 5541 5533 5525 5517 5508 5499 5490 5481 5472 5463 5454 5446 5438 5431 5424 5417 5411 5404 5398 5392 5385 5380 5375 5370 5365 5361 5357 5353 5349 5345
5579 5575 5570 5565 5560 5553 5547 5539 5531 5523 5516 5508 5499 5491 5482 5473 5464 5456 5447 5439 5432 5425 5418 5412 5406 5400 5394 5388 5383 5377 5372 5367 5363 5359 5355 5351 5347 5343
5570 5566 5561 5556 5550 5544 5537 5530 5522 5515 5507 5499 5490 5482 5474 5465 5457 5449 5441 5433 5426 5420 5414 5407 5401 5396 5390 5385 5380 5375 5370 5365 5361 5357 5353 5350 5346 5342
5561 5557 5552 5547 5541 5535 5528 5521 5513 5506 5498 5490 5482 5474 5466 5458 5450 5442 5434 5428 5421 5415 5410 5404 5398 5393 5388 5383 5378 5373 5368 5364 5359 5355 5352 5348 5345 5341
5552 5548 5543 5538 5532 5525 5518 5511 5505 5497 5490 5482 5474 5466 5458 5450 5443 5435 5429 5423 5417 5411 5406 5400 5395 5390 5385 5381 5376 5371 5367 5363 5359 5355 5351 5347 5344 5341